DW7995 Weather Reports


Display with metric or nautical units.
time (UTC)temp
F
wind
direction
speed
MPH
gust
MPH
rain 1hr
in
rain 24hr
in
rain mn
in
humidity
%
barometer
mb
20260904131556 69 0 0.0 5.0 0.00 0.16 0.00 66 1021.2
20260904131039 68 0 0.0 4.0 0.00 0.16 0.00 67 1021.2
20260904130539 68 222 0.0 4.0 0.00 0.16 0.00 68 1021.2
20260904130059 67 244 0.0 3.0 0.00 0.16 0.00 70 1021.2
20260904125539 67 296 0.0 0.0 0.00 0.16 0.00 71 1021.2
20260904125039 67 0 0.0 0.0 0.00 0.16 0.00 70 1021.2
20260904124600 67 0 0.0 0.0 0.00 0.16 0.00 69 1021.2
20260904124038 67 0 0.0 0.0 0.00 0.16 0.00 69 1021.2
20260904123540 68 0 0.0 4.0 0.00 0.16 0.00 68 1021.2
20260904123103 68 0 0.0 4.0 0.00 0.16 0.00 68 1021.2
20260904122540 68 0 1.0 4.0 0.00 0.16 0.00 68 1021.2
20260904122040 68 0 0.0 0.0 0.00 0.16 0.00 68 1021.2
20260904121559 68 0 0.0 0.0 0.00 0.16 0.00 68 1021.2
20260904121040 68 0 0.0 1.0 0.00 0.16 0.00 69 1021.2
20260904120539 68 0 0.0 4.0 0.00 0.16 0.00 69 1021.2
20260904120056 68 0 1.0 6.0 0.00 0.16 0.00 69 1021.2
20260904115539 68 239 1.0 6.0 0.00 0.16 0.00 69 1021.2
20260904115040 68 229 0.0 4.0 0.00 0.16 0.00 69 1021.2
20260904114551 68 0 0.0 4.0 0.00 0.16 0.00 69 1021.2
20260904114040 68 252 0.0 1.0 0.00 0.16 0.00 69 1021.2
20260904113540 68 0 0.0 1.0 0.00 0.16 0.00 69 1021.2
20260904113057 68 0 0.0 7.0 0.00 0.16 0.00 68 1021.2
20260904112539 68 0 0.0 7.0 0.00 0.16 0.00 68 1021.2
20260904112040 68 0 1.0 8.0 0.00 0.16 0.00 68 1021.2
20260904111557 68 268 2.0 8.0 0.00 0.16 0.00 68 1021.2
20260904111041 68 236 0.0 7.0 0.00 0.16 0.00 68 1021.2
20260904110540 68 292 0.0 4.0 0.00 0.16 0.00 68 1021.2
20260904110055 68 233 0.0 4.0 0.00 0.16 0.00 68 1021.2
20260904105541 67 0 0.0 3.0 0.00 0.16 0.00 69 1021.2
20260904105039 68 264 0.0 3.0 0.00 0.16 0.00 69 1021.2
20260904104555 68 0 0.0 3.0 0.00 0.16 0.00 69 1021.2
20260904104043 68 0 0.0 4.0 0.00 0.16 0.00 69 1021.2
20260904103539 68 0 0.0 6.0 0.00 0.16 0.00 68 1021.2
20260904103049 68 244 1.0 6.0 0.00 0.16 0.00 68 1021.2
20260904102544 68 0 0.0 5.0 0.00 0.16 0.00 69 1021.2
20260904102039 68 220 1.0 7.0 0.00 0.16 0.00 68 1021.2
20260904101556 68 0 2.0 10.0 0.00 0.16 0.00 68 1021.2
20260904101039 68 234 3.0 10.0 0.00 0.16 0.00 68 1021.2
20260904100540 68 240 3.0 9.0 0.00 0.16 0.00 67 1021.2
20260904100100 68 213 2.0 8.0 0.00 0.16 0.00 67 1021.2
20260904095540 69 302 3.0 11.0 0.00 0.16 0.00 66 1021.2
20260904095039 69 231 3.0 11.0 0.00 0.16 0.00 66 1021.2
20260904094559 69 210 3.0 11.0 0.00 0.16 0.00 66 1021.2
20260904094039 69 217 3.0 7.0 0.00 0.16 0.00 66 1021.2
20260904093541 68 232 2.0 7.0 0.00 0.16 0.00 67 1021.2
20260904093056 68 173 1.0 4.0 0.00 0.16 0.00 68 1021.2
20260904092543 68 0 0.0 8.0 0.00 0.16 0.00 68 1021.2
20260904092042 68 0 1.0 8.0 0.00 0.16 0.00 68 1021.2
20260904091553 68 228 2.0 8.0 0.00 0.16 0.00 67 1021.2
20260904091040 68 258 1.0 9.0 0.00 0.16 0.00 67 1021.2
20260904090539 69 281 3.0 9.0 0.00 0.16 0.00 66 1021.2
20260904090057 69 238 2.0 9.0 0.00 0.16 0.00 65 1021.2
20260904085540 69 243 0.0 3.0 0.00 0.16 0.00 65 1021.2
20260904085040 69 0 0.0 3.0 0.00 0.16 0.00 65 1021.2
20260904084558 69 0 0.0 3.0 0.00 0.16 0.00 64 1021.2
20260904084039 69 0 0.0 3.0 0.00 0.16 0.00 65 1021.2
20260904083539 69 257 0.0 2.0 0.00 0.16 0.00 65 1021.2
20260904083057 69 0 0.0 0.0 0.00 0.16 0.00 66 1021.2
20260904082540 69 0 0.0 0.0 0.00 0.16 0.00 65 1021.2
20260904082040 69 0 0.0 2.0 0.00 0.16 0.00 65 1021.2
20260904081601 69 0 0.0 6.0 0.00 0.16 0.00 65 1021.2
20260904081040 69 0 0.0 6.0 0.00 0.16 0.00 65 1021.2
20260904080540 69 0 0.0 5.0 0.00 0.16 0.00 65 1021.2
20260904075539 70 0 1.0 5.0 0.00 0.16 0.00 64 1021.2
20260904075040 70 215 0.0 6.0 0.00 0.16 0.00 64 1021.2
20260904074610 69 221 3.0 6.0 0.00 0.16 0.00 65 1021.2
20260904074039 69 237 0.0 4.0 0.00 0.16 0.00 65 1021.2
20260904073539 69 0 0.0 4.0 0.00 0.16 0.00 64 1021.2
20260904073101 69 0 0.0 6.0 0.00 0.16 0.00 65 1021.2
20260904072542 68 237 0.0 6.0 0.00 0.16 0.00 66 1021.2
20260904072040 66 0 2.0 6.0 0.00 0.16 0.00 70 1021.2
20260904071601 64 0 0.0 0.0 0.00 0.16 0.00 79 1021.2
20260904071043 64 0 0.0 0.0 0.00 0.16 0.00 81 1021.2
20260904070540 64 0 0.0 0.0 0.00 0.16 0.00 82 1021.2
20260904065539 64 0 0.0 0.0 0.00 0.16 0.00 81 1021.2
20260904065042 64 0 0.0 0.0 0.00 0.16 0.00 80 1021.2
20260904064602 64 0 0.0 0.0 0.00 0.16 0.00 82 1021.2
20260904064039 64 0 0.0 0.0 0.00 0.16 0.00 83 1021.2
20260904063539 64 0 0.0 0.0 0.00 0.16 0.00 82 1021.2
20260904063103 64 0 0.0 0.0 0.00 0.16 0.00 82 1021.2
20260904062538 64 0 0.0 0.0 0.00 0.16 0.00 82 1021.2
20260904062040 64 0 0.0 0.0 0.00 0.16 0.00 81 1021.2
20260904061550 64 0 0.0 0.0 0.00 0.16 0.00 80 1021.2
20260904061040 64 0 0.0 0.0 0.00 0.16 0.00 82 1021.2
20260904060544 64 0 0.0 0.0 0.00 0.16 0.00 82 1021.2
20260904060105 64 0 0.0 0.0 0.00 0.16 0.00 82 1021.2
20260904055540 64 0 0.0 0.0 0.00 0.16 0.00 81 1021.2
20260904055039 64 0 0.0 0.0 0.00 0.16 0.00 80 1021.2
20260904054557 64 0 0.0 0.0 0.00 0.16 0.00 81 1021.2
20260904054040 65 0 0.0 0.0 0.00 0.16 0.00 80 1021.2
20260904053539 65 0 0.0 0.0 0.00 0.16 0.00 78 1021.2
20260904053051 64 0 0.0 0.0 0.00 0.16 0.00 79 1021.2
20260904052539 64 0 0.0 0.0 0.00 0.16 0.00 80 1021.2
20260904052039 64 0 0.0 0.0 0.00 0.16 0.00 80 1021.2
20260904051600 64 0 0.0 0.0 0.00 0.16 0.00 79 1021.2
20260904051040 64 0 0.0 0.0 0.00 0.16 0.00 79 1021.2
20260904050539 64 0 0.0 0.0 0.00 0.16 0.00 80 1021.2
20260904050056 64 0 0.0 0.0 0.00 0.16 0.00 80 1021.2
20260904045539 64 0 0.0 0.0 0.00 0.16 0.16 80 1021.2
20260904045040 64 0 0.0 0.0 0.00 0.16 0.16 77 1021.2
20260904044557 64 0 0.0 0.0 0.00 0.16 0.16 78 1021.2
20260904044038 63 0 0.0 0.0 0.00 0.16 0.16 79 1021.2
20260904043539 64 0 0.0 0.0 0.00 0.16 0.16 81 1021.2
20260904043057 64 0 0.0 0.0 0.00 0.16 0.16 79 1021.2
20260904042539 64 0 0.0 0.0 0.00 0.16 0.16 78 1021.2
20260904042040 64 0 0.0 0.0 0.00 0.16 0.16 77 1021.2
20260904041555 64 0 0.0 0.0 0.00 0.16 0.16 77 1021.2
20260904041040 63 0 0.0 0.0 0.00 0.16 0.16 78 1021.2
20260904040539 63 0 0.0 0.0 0.00 0.16 0.16 79 1021.2
20260904040059 63 0 0.0 0.0 0.00 0.16 0.16 80 1021.2
20260904035539 63 0 0.0 0.0 0.00 0.16 0.16 79 1021.2
20260904035040 63 0 0.0 0.0 0.00 0.16 0.16 79 1021.2
20260904034550 63 0 0.0 0.0 0.00 0.16 0.16 79 1021.2
20260904034041 63 0 0.0 0.0 0.00 0.16 0.16 79 1021.2
20260904033541 63 0 0.0 0.0 0.00 0.16 0.16 79 1021.2
20260904033058 64 0 0.0 0.0 0.00 0.16 0.16 79 1021.2
20260904032539 63 0 0.0 0.0 0.00 0.16 0.16 77 1021.2
20260904032039 63 0 0.0 0.0 0.00 0.16 0.16 80 1021.2
20260904031600 64 0 0.0 0.0 0.00 0.16 0.16 78 1021.2
20260904031039 64 0 0.0 0.0 0.00 0.16 0.16 78 1021.2
20260904030540 64 0 0.0 3.0 0.00 0.16 0.16 76 1021.2
20260904030053 64 0 0.0 3.0 0.00 0.16 0.16 78 1021.2
20260904025539 63 0 0.0 3.0 0.00 0.16 0.16 79 1021.2
20260904025039 63 0 0.0 0.0 0.00 0.16 0.16 81 1021.2
20260904024553 63 0 0.0 0.0 0.00 0.16 0.16 79 1021.2
20260904024040 63 0 0.0 0.0 0.00 0.16 0.16 79 1021.2
20260904023538 63 0 0.0 0.0 0.00 0.16 0.16 77 1021.2
20260904023056 63 0 0.0 0.0 0.00 0.16 0.16 77 1021.2
20260904022539 64 0 0.0 0.0 0.00 0.16 0.16 77 1021.2
20260904022040 64 0 0.0 0.0 0.00 0.16 0.16 75 1021.2
20260904021553 64 0 0.0 0.0 0.00 0.16 0.16 74 1021.2
20260904021041 65 0 0.0 0.0 0.00 0.16 0.16 76 1021.2
20260904020539 65 0 0.0 0.0 0.00 0.16 0.16 75 1021.2
20260904020055 65 0 0.0 0.0 0.00 0.16 0.16 72 1021.2
20260904015538 65 0 0.0 0.0 0.00 0.16 0.16 73 1021.2
20260904015040 66 0 0.0 0.0 0.00 0.16 0.16 76 1021.2
20260904014607 66 0 0.0 0.0 0.00 0.16 0.16 75 1021.2
20260904014042 67 0 0.0 0.0 0.00 0.16 0.16 74 1021.2
20260904013543 68 0 0.0 0.0 0.00 0.16 0.16 73 1021.2
20260904013055 68 0 0.0 0.0 0.00 0.16 0.16 70 1021.2
20260904012540 69 0 0.0 0.0 0.00 0.16 0.16 70 1021.2
20260904012039 70 0 0.0 0.0 0.00 0.16 0.16 68 1021.2
20260904011555 70 0 0.0 0.0 0.00 0.16 0.16 68 1021.2
20260904011039 71 0 0.0 0.0 0.00 0.16 0.16 67 1021.2
20260904010539 72 0 0.0 0.0 0.00 0.16 0.16 66 1021.2
20260904010115 73 0 0.0 2.0 0.00 0.16 0.16 62 1021.2
20260904005544 73 0 0.0 2.0 0.00 0.16 0.16 60 1021.2
20260904005039 73 288 0.0 0.0 0.00 0.16 0.16 62 1021.2
20260904004555 74 0 0.0 0.0 0.00 0.16 0.16 60 1021.2
20260904004039 75 0 0.0 0.0 0.00 0.16 0.16 58 1021.2
20260904003538 75 0 0.0 0.0 0.00 0.16 0.16 58 1021.2
20260904003100 76 0 0.0 0.0 0.00 0.16 0.16 55 1021.2
20260904002540 76 0 0.0 2.0 0.00 0.16 0.16 53 1021.2
20260904002041 77 0 0.0 2.0 0.00 0.16 0.16 53 1021.2
20260904001555 77 0 0.0 0.0 0.00 0.16 0.16 52 1021.2
20260904001039 77 0 0.0 0.0 0.00 0.16 0.16 50 1021.2
20260904000539 78 0 0.0 0.0 0.00 0.16 0.16 50 1021.2
20260904000057 78 0 0.0 0.0 0.00 0.16 0.16 49 1021.2
20260903235542 78 0 0.0 0.0 0.00 0.16 0.16 50 1021.2
20260903235038 79 0 0.0 0.0 0.00 0.16 0.16 52 1021.2
20260903234558 79 0 0.0 0.0 0.00 0.16 0.16 50 1021.2
20260903234039 79 0 0.0 0.0 0.00 0.16 0.16 50 1021.2
20260903233542 80 0 0.0 4.0 0.00 0.16 0.16 50 1021.2
20260903233049 80 0 0.0 8.0 0.00 0.16 0.16 46 1021.2
20260903232539 79 173 0.0 8.0 0.00 0.16 0.16 48 1021.2
20260903232039 78 0 0.0 6.0 0.00 0.16 0.16 48 1021.2
20260903231554 79 227 0.0 5.0 0.00 0.16 0.16 49 1021.2
20260903231039 79 0 0.0 5.0 0.00 0.16 0.16 49 1021.2
20260903230539 79 0 0.0 3.0 0.00 0.16 0.16 50 1021.2
20260903230051 79 0 0.0 10.0 0.00 0.16 0.16 50 1021.2
20260903225544 79 163 3.0 10.0 0.00 0.16 0.16 49 1021.2
20260903225038 80 0 1.0 5.0 0.00 0.16 0.16 49 1021.2
20260903224554 81 0 0.0 6.0 0.00 0.16 0.16 49 1021.2
20260903224039 81 0 1.0 6.0 0.00 0.16 0.16 46 1021.2
20260903223538 82 0 0.0 0.0 0.00 0.16 0.16 46 1021.2
20260903223055 82 0 0.0 0.0 0.00 0.16 0.16 45 1021.2
20260903222539 82 161 0.0 0.0 0.00 0.16 0.16 48 1021.2
20260903222039 81 0 0.0 0.0 0.00 0.16 0.16 47 1021.2
20260903221553 81 0 0.0 0.0 0.00 0.16 0.16 51 1021.2
20260903221038 81 0 0.0 0.0 0.00 0.16 0.16 52 1021.2
20260903220538 80 0 0.0 0.0 0.00 0.16 0.16 52 1021.2
20260903220056 79 0 0.0 0.0 0.00 0.16 0.16 57 1021.2
20260903215539 78 0 0.0 0.0 0.00 0.16 0.16 58 1021.2
20260903215040 78 0 0.0 0.0 0.00 0.16 0.16 60 1021.2
20260903214558 78 0 0.0 0.0 0.00 0.16 0.16 62 1021.2
20260903214040 78 0 0.0 0.0 0.00 0.16 0.16 61 1021.2
20260903213539 78 0 0.0 0.0 0.00 0.16 0.16 66 1021.2
20260903213056 76 0 0.0 0.0 0.00 0.16 0.16 72 1021.2
20260903212540 75 0 0.0 0.0 0.00 0.16 0.16 74 1021.2
20260903212040 74 0 0.0 0.0 0.00 0.16 0.16 77 1021.2
20260903211559 73 0 0.0 0.0 0.00 0.16 0.16 82 1021.2
20260903211039 72 0 0.0 0.0 0.00 0.16 0.16 83 1021.2
20260903210540 73 0 0.0 0.0 0.01 0.16 0.16 82 1021.2
20260903210114 73 0 0.0 0.0 0.01 0.16 0.16 85 1021.2
20260903205540 72 0 0.0 0.0 0.02 0.16 0.16 83 1021.2
20260903205040 72 0 0.0 0.0 0.05 0.16 0.16 83 1021.2
20260903204613 71 0 0.0 0.0 0.06 0.16 0.16 82 1021.2
20260903204038 70 0 0.0 0.0 0.08 0.16 0.16 83 1021.2
20260903203538 70 0 0.0 0.0 0.12 0.16 0.16 83 1021.2
20260903203057 69 0 0.0 0.0 0.14 0.16 0.16 86 1021.2
20260903202538 68 0 0.0 1.0 0.15 0.16 0.16 88 1021.2
20260903202039 67 0 0.0 1.0 0.16 0.16 0.16 87 1021.2
20260903201600 67 0 0.0 1.0 0.16 0.16 0.16 87 1021.2
20260903201038 66 0 0.0 0.0 0.16 0.16 0.16 89 1021.2
20260903200539 66 0 0.0 0.0 0.15 0.15 0.15 88 1021.2
20260903200058 66 0 0.0 0.0 0.14 0.14 0.14 86 1021.2
20260903195539 66 0 0.0 0.0 0.14 0.14 0.14 87 1021.2
20260903195039 66 0 0.0 0.0 0.11 0.11 0.11 85 1021.2
20260903194559 66 0 0.0 0.0 0.10 0.10 0.10 83 1021.2
20260903194039 67 0 0.0 5.0 0.08 0.08 0.08 81 1021.2
20260903193541 68 0 0.0 5.0 0.04 0.04 0.04 74 1021.2
20260903193059 69 144 1.0 5.0 0.02 0.02 0.02 74 1021.2
20260903192540 71 58 0.0 6.0 0.01 0.01 0.01 70 1021.2
20260903192040 72 89 4.0 13.0 0.00 0.00 0.00 62 1021.2
20260903191559 74 0 2.0 13.0 0.00 0.00 0.00 60 1021.2
20260903191040 75 66 5.0 11.0 0.00 0.00 0.00 56 1021.2
20260903190539 76 72 4.0 11.0 0.00 0.00 0.00 56 1021.2
20260903190104 77 13 2.0 11.0 0.00 0.00 0.00 54 1021.2
20260903185539 78 83 1.0 9.0 0.00 0.01 0.00 52 1021.2
20260903185039 79 20 4.0 10.0 0.00 0.01 0.00 52 1021.2
20260903184604 80 113 5.0 10.0 0.00 0.01 0.00 49 1021.2
20260903184040 83 70 0.0 4.0 0.00 0.01 0.00 43 1021.2
20260903183539 82 0 0.0 7.0 0.00 0.01 0.00 44 1021.2
20260903183101 82 0 1.0 7.0 0.00 0.01 0.00 43 1021.2
20260903182540 82 329 0.0 0.0 0.00 0.01 0.00 43 1021.2
20260903182039 82 0 0.0 2.0 0.00 0.01 0.00 44 1021.2
20260903181555 82 0 0.0 2.0 0.00 0.01 0.00 44 1021.2
20260903181039 81 0 0.0 5.0 0.00 0.01 0.00 44 1021.2
20260903180540 81 0 0.0 5.0 0.00 0.01 0.00 44 1021.2
20260903180100 81 0 1.0 5.0 0.00 0.01 0.00 44 1021.2
20260903175539 81 0 0.0 6.0 0.00 0.01 0.00 45 1021.2
20260903175040 81 0 1.0 7.0 0.00 0.01 0.00 44 1021.2
20260903174558 82 243 1.0 7.0 0.00 0.01 0.00 44 1021.2
20260903174041 82 238 3.0 7.0 0.00 0.01 0.00 43 1021.2
20260903173540 81 235 0.0 6.0 0.00 0.01 0.00 44 1021.2
20260903173059 81 0 0.0 7.0 0.00 0.01 0.00 44 1021.2
20260903172539 82 0 3.0 8.0 0.00 0.01 0.00 43 1021.2
20260903172039 84 220 3.0 8.0 0.00 0.01 0.00 41 1021.2
20260903171603 83 236 3.0 8.0 0.00 0.01 0.00 43 1021.2
20260903171042 83 246 2.0 7.0 0.00 0.01 0.00 42 1021.2
20260903170540 83 0 2.0 9.0 0.00 0.01 0.00 42 1021.2
20260903165540 82 223 2.0 9.0 0.00 0.01 0.00 44 1021.2
20260903165039 83 205 5.0 11.0 0.00 0.01 0.00 43 1021.2
20260903164606 83 236 4.0 11.0 0.00 0.01 0.00 43 1021.2
20260903164040 83 295 5.0 11.0 0.00 0.01 0.00 43 1021.2
20260903163540 83 211 5.0 11.0 0.00 0.01 0.00 43 1021.2
20260903163111 83 183 4.0 9.0 0.00 0.01 0.00 43 1021.2
20260903162539 83 214 4.0 8.0 0.00 0.01 0.00 42 1021.2
20260903162039 83 0 4.0 8.0 0.00 0.01 0.00 43 1021.2
20260903161600 83 176 2.0 8.0 0.00 0.01 0.00 44 1021.2
20260903161039 82 0 1.0 10.0 0.00 0.01 0.00 46 1021.2
20260903160540 82 0 0.0 10.0 0.00 0.01 0.00 45 1021.2
20260903160107 82 236 3.0 8.0 0.00 0.01 0.00 44 1021.2
20260903155540 81 235 3.0 6.0 0.00 0.01 0.00 44 1021.2
20260903155039 82 0 2.0 9.0 0.00 0.01 0.00 45 1021.2
20260903154602 81 0 3.0 9.0 0.00 0.01 0.00 45 1021.2
20260903154039 81 0 3.0 10.0 0.00 0.01 0.00 46 1021.2
20260903153539 80 295 4.0 10.0 0.00 0.01 0.00 46 1021.2
20260903153102 80 229 2.0 9.0 0.00 0.01 0.00 45 1021.2
20260903152540 81 282 0.0 8.0 0.00 0.01 0.00 45 1021.2
20260903152040 80 306 3.0 8.0 0.00 0.01 0.00 46 1021.2
20260903151558 80 204 2.0 7.0 0.00 0.01 0.00 46 1021.2
20260903151039 81 229 0.0 4.0 0.00 0.01 0.00 46 1021.2
20260903150540 80 295 0.0 3.0 0.00 0.01 0.00 47 1021.2
20260903150107 80 0 0.0 3.0 0.00 0.01 0.00 47 1021.2
20260903145539 79 0 0.0 3.0 0.00 0.01 0.00 48 1021.2
20260903145040 79 0 0.0 4.0 0.00 0.01 0.00 50 1021.2
20260903144605 78 0 0.0 5.0 0.00 0.01 0.00 50 1021.2
20260903144039 78 0 0.0 5.0 0.00 0.01 0.00 51 1021.2
20260903143542 78 0 0.0 5.0 0.00 0.01 0.00 51 1021.2
20260903143105 77 0 0.0 0.0 0.00 0.01 0.00 55 1021.2
20260903142543 75 0 0.0 0.0 0.00 0.01 0.00 58 1021.2
20260903142039 73 0 0.0 0.0 0.00 0.01 0.00 63 1021.2
20260903141559 71 0 0.0 0.0 0.00 0.01 0.00 67 1021.2
20260903141041 69 0 0.0 0.0 0.00 0.01 0.00 73 1021.2
20260903140539 68 0 0.0 0.0 0.00 0.01 0.00 72 1021.2
20260903140112 67 0 0.0 0.0 0.00 0.01 0.00 73 1021.2
20260903135540 67 0 0.0 0.0 0.00 0.01 0.00 73 1021.2
20260903135039 67 0 0.0 0.0 0.00 0.01 0.00 73 1021.2
20260903134559 66 0 0.0 0.0 0.00 0.01 0.00 73 1021.2
20260903134040 65 0 0.0 0.0 0.00 0.01 0.00 74 1021.2
20260903133539 65 0 0.0 0.0 0.00 0.01 0.00 75 1021.2
20260903133108 65 0 0.0 0.0 0.00 0.01 0.00 75 1021.2
20260903132543 65 0 0.0 0.0 0.00 0.01 0.00 75 1021.2
20260903132042 64 0 0.0 0.0 0.00 0.01 0.00 76 1021.2